Regional Weather Roundup
Issued by NWS

Home | Current Version | Previous Version | Text Only | Print | Product List | Glossary Off
Versions: 1 2 3 4 5 6 7 8 9 10 11 12 13 14 15 16 17 18 19 20 21 22 23 24 25 26 27 28 29 30 31 32 33 34 35 36 37 38 39 40 41 42 43 44 45 46 47 48 49 50

000
ASUS43 KLOT 281004
RWRIL

ILLINOIS REGIONAL WEATHER ROUNDUP
NATIONAL WEATHER SERVICE CHICAGO/ROMEOVILLE IL
500 AM CDT SUN MAY 28 2017

NOTE: "FAIR" INDICATES FEW OR NO CLOUDS BELOW 12,000 FEET WITH NO
SIGNIFICANT WEATHER AND/OR OBSTRUCTIONS TO VISIBILITY.

* THESE STATIONS ARE NOT UNDER NWS QUALITY CONTROL. THEY ALSO MAY NOT
  REPORT WEATHER SUCH AS PRECIPITATION OR FOG.

ILZ001-002-007-009-015-016-024-281100-
NORTHWEST ILLINOIS

CITY           SKY/WX    TMP DP  RH WIND       PRES   REMARKS
MOLINE         MOCLDY    61  59  93 W3        29.74S FOG
STERLING*      CLOUDY    62  61  96 CALM      29.73F FOG
SAVANNA*       CLOUDY    61  59  92 N8        29.75S
$$

ILZ003-004-008-010-011-017-018-281100-
NORTH CENTRAL ILLINOIS

CITY           SKY/WX    TMP DP  RH WIND       PRES   REMARKS
ROCKFORD       PTCLDY    59  56  89 CALM      29.74F
FREEPORT*      MOCLDY    57  56  97 CALM      29.76R FOG
ROCHELLE*      CLOUDY    57  56  97 SE8       29.74F FOG
DE KALB*       CLOUDY    56  55  94 SE5       29.74F FOG
PERU*            N/A     59  58  97 E5        29.74F FOG
$$

ILZ005-006-012>014-019>023-281100-
NORTHEAST ILLINOIS

CITY           SKY/WX    TMP DP  RH WIND       PRES   REMARKS
CHICAGO-OHARE  MOCLDY    57  52  83 CALM      29.74F
CHICAGO-MIDWAY CLOUDY    60  54  80 NE3       29.73F
AURORA         CLEAR     57  55  93 CALM      29.74F FOG
LANSING*       CLOUDY    55  55 100 CALM      29.74F
JOLIET*        CLOUDY    57  56  97 CALM      29.73F FOG
WAUKEGAN       CLEAR     52  51  97 CALM      29.74F
DUPAGE AIRPORT CLEAR     55  55 100 N5        29.74F FOG
KANKAKEE*      MOCLDY    59  58  97 CALM      29.75R FOG
WHEELING       CLEAR     55  54  96 CALM      29.76F
MORRIS*        PTCLDY    58  56  92 CALM      29.73S FOG
ROMEOVILLE*    CLOUDY    55  55 100 NE3       29.74F FOG
NORTHERLY ISL    N/A     56  52  86 N1          N/A
$$

LMZ740>746-281100-
SOUTHERN LAKE MICHIGAN

STATION/POSITION SKY/WX   TEMP    WIND        PRES    VSBY  WAVE
                          AIR SEA DIR/SP/G                  HT/PER
                          (F)     (DEG/KT/KT) (MB)    (MI)  (FT/S)
SOUTHERN BUOY              54 49  170/  2/  2 1008.8          0
WILMETTE HARBOR            52 55                N/A           0
HARRISON CRIB              57      10/  3/  3   N/A
BURNHAM HARBOR             56      10/  2/  4   N/A
CALUMET HARBOR             55     360/  2/  3 1006.7F
BURNS HARBOR               63      CALM  /  3 1007.8F
MICHIGAN CITY              62     110/  5/  7   N/A
MICHIGAN CITY 6N           57 55   80/  2/  2   N/A           0
ST. JOSEPH                 60 59  140/  6/  6 1007.5F         0
$$

ILZ025>027-034>036-040-047-049-050-058-095>099-281100-
WEST-CENTRAL ILLINOIS

CITY           SKY/WX    TMP DP  RH WIND       PRES   REMARKS
QUINCY         MOCLDY    63  62  97 NW8       29.76R FOG
GALESBURG*       N/A     58  58 100 CALM      29.74S FOG
MACOMB*        CLOUDY    60  60  99 NW5       29.77R FOG
JACKSONVILLE*  FOG       61  60  99 SW3       29.73S VSB 1/2
PITTSFIELD*    MOCLDY    64  63  96 W6        29.76R
$$

ILZ028>032-037-038-041>044-048-051>054-059>061-281100-
CENTRAL ILLINOIS

CITY           SKY/WX    TMP DP  RH WIND       PRES   REMARKS
PONTIAC        MOCLDY    62  61  97 CALM      29.74F FOG
BLOOMINGTON    MOCLDY    60  58  92 NE5       29.73F
DECATUR        MOCLDY    61  61 100 CALM      29.71F FOG
PEORIA         CLOUDY    62  62 100 N3        29.73F FOG
LACON*         CLOUDY    59  59 100 CALM      29.73S FOG
LINCOLN*       CLOUDY    64  63  99 CALM      29.72S
SPRINGFIELD    CLOUDY    62  61  96 CALM      29.73R
TAYLORVILLE    CLOUDY    60  60  99 SW3       29.73R
$$

ILZ033-039-045-046-055>057-062-063-281100-
EAST-CENTRAL ILLINOIS

CITY           SKY/WX    TMP DP  RH WIND       PRES   REMARKS
CHAMPAIGN      CLOUDY    62  60  93 E7        29.71F
RANTOUL*       MOCLDY    64  62  96 E6        29.72S
MATTOON        CLOUDY    63  63 100 CALM      29.70F FOG
PARIS*         MOCLDY    63  63 100 E3        29.72F
$$

ILZ079-100>102-281100-
SOUTHWEST ILLINOIS

CITY           SKY/WX    TMP DP  RH WIND       PRES   REMARKS
ALTON          CLOUDY    62  60  92 SW8       29.76R
BELLEVILLE     CLOUDY    63  60  91 W3        29.76F
CAHOKIA*       CLOUDY    63  60  90 SW3       29.76S
SPARTA*        CLOUDY    63  60  92 SW5       29.76F
$$

ILZ064>066-069>071-074>076-080>082-084>086-088>090-092>094-281100-
SOUTH-CENTRAL ILLINOIS

CITY           SKY/WX    TMP DP  RH WIND       PRES   REMARKS
CARBONDALE     CLOUDY    62  62 100 S6        29.77F
CAIRO*         CLOUDY    63  63  97 S6        29.80S
EFFINGHAM*     CLOUDY    62  62 100 S5        29.74S
MARION         CLOUDY    63  63 100 S3        29.77F
MT. VERNON       N/A     63  61  93 SW6       29.76S
CENTRALIA*     MOCLDY    64  62  94 SW6       29.75S
SALEM*         MOCLDY    64  61  88 SW8       29.75S
$$

ILZ067-068-072-073-078-083-087-091-281100-
SOUTHEAST ILLINOIS

CITY           SKY/WX    TMP DP  RH WIND       PRES   REMARKS
LAWRENCEVILLE  CLOUDY    64  62  93 S5        29.73S
FLORA*         CLOUDY    65  61  86 SW10      29.74S
FAIRFIELD*     CLOUDY    64  62  91 SW5       29.75R
HARRISBURG*    CLOUDY    64  62  90 SW6       29.78S
ROBINSON*      CLOUDY    63  60  91 S5        29.73F
CARMI*         CLOUDY    64  61  90 SW15      29.77R
$$

ABBREVIATIONS USED IN REMARKS
   TC - TEMPERATURE IN CELSIUS
  WCI - WIND CHILL INDEX
   HX - HEAT INDEX
  VSB - VISIBILITY
$$





USA.gov is the U.S. government's official web portal to all federal, state and local government web resources and services.